{"data":{"norad_id":53853,"intl_designator":"2022-114AM","name":"STARLINK-4794","alt_names":[],"object_type":"PAYLOAD","status":"ACTIVE","operator":null,"country":"US","launch_date":"2022-09-19","launch_site_code":"AFETR","launch_vehicle":null,"mission":null,"orbit_class":"UNKNOWN","rcs_meters":null,"size_class":null,"mass_kg":null,"dimensions":null,"purposes":["comms"],"wikipedia_slug":null,"has_3d_model":false,"image_url":null,"decayed_at":null,"tle_current":{"epoch":"2026-09-19T22:57:44.432928Z","epoch_age_seconds":131038,"freshness":"FRESH","line1":"1 53853U 22114AM  26262.95676427  .00001007  00000+0  81376-4 0  9994","line2":"2 53853  53.1596 141.0591 0001825  83.2435 276.8764 15.08844413222304","mean_motion":15.08844413,"eccentricity":0.0001825,"inclination_deg":53.1596,"raan_deg":141.0591,"arg_perigee_deg":83.2435,"mean_anomaly_deg":276.8764,"bstar":8.1376e-5,"rev_number":22230,"period_min":95.437275546316,"perigee_km":538.46738951214,"apogee_km":540.99241093072,"semimajor_km":6917.8669002214,"source":"CELESTRAK","updated_at":"2026-09-21T09:00:33.023684Z"}}}